If you wish to contribute or participate in the discussions about articles you are invited to join SKYbrary as a registered user

 Actions

Lille-Lesquin Airport

From SKYbrary Wiki

LFQQ
Airport
ICAO: LFQQ – IATA: LIL
Summary
Name Lille-Lesquin Airport
Region Europe
Territory France FR.gif
Location , Nord-Pas-de-Calais
Serving Lille
Elevation 47.854 m
157 ft
157 ft47.854 m
Type medium airport
Coordinates 50° 33' 42.99" N, 3° 5' 22.00" E
Runways
Designator Length Width Surface ROPS
2/20 1580 m5,183.727 ft
30 m98.425 ft
ASP yes/yes
8/26 2825 m9,268.373 ft
45 m147.638 ft
ASP yes/yes


METAR
Observation LFQQ 181800Z AUTO 36011KT CAVOK 15/06 Q1027 NOSIG
Station Lille
Date/Time 18 September 2019 18:00:00
Wind direction 360°
Wind speed 11 kts
Lowest cloud amount clouds and visibility OK
Temperature 15°C
Dew point 6°C
Humidity 54%
QNH 1027 hPa
Weather condition n/a